Columbia, SC

11:22 PM EST on January 23, 2018 (GMT -0500)
Columbia Metro

Weather History for KCAE - January, 2013

Change the Weather History Date:

Tuesday, January 8, 2013

  Actual Average Record
Temperature  
Mean Temperature 46 °F 44 °F  
Max Temperature 59 °F 55 °F 77 °F (1907)
Min Temperature 32 °F 33 °F 12 °F (1970)
Degree Days  
Heating Degree Days 19 21  
Month to date heating degree days 143 168  
Since 1 July heating degree days 983 1178  
Cooling Degree Days 0 0  
Month to date cooling degree days 0 0  
Year to date cooling degree days 0 0  
Moisture  
Dew Point 38 °F    
Average Humidity 71    
Maximum Humidity 92    
Minimum Humidity 50    
Precipitation  
Precipitation 0.00 in 0.12 in 2.03 in (1912)
Month to date precipitation 0.32 0.90  
Year to date precipitation 0.32 0.90  
Sea Level Pressure  
Sea Level Pressure 30.37 in    
Wind  
Wind Speed 2 mph (NNE)    
Max Wind Speed 7 mph    
Max Gust Speed 9 mph    
Visibility 10 miles    
Events      
T = Trace of Precipitation, MM = Missing Value Source: NWS Daily Summary

Daily Weather History Graph

Daily Weather History Graph

Search for Another Location

Airport or City:

Trip Planner

Search our weather history database for the weather conditions in past years. The results will help you decide how hot, cold, wet, or windy it might be!

Date:

Astronomy

Jan. 08, 2013 Rise Set
Actual Time 7:30 AM EST 5:32 PM EST
Civil Twilight 7:03 AM EST 5:59 PM EST
Nautical Twilight 6:32 AM EST 6:30 PM EST
Astronomical Twilight 6:01 AM EST 7:01 PM EST
Moon 4:02 AM EST (1/8) 2:33 PM EST (1/8)
Length of Visible Light 10h 56m
Length of Day
10h 02m
Waning Crescent, 14% of the Moon is Illuminated
Jan 8
Waning Crescent
Jan 11
New
Jan 18
First Quarter
Jan 26
Full
Feb 3
Last Quarter

Hourly Weather History & Observations

Time (EST) Temp. Windchill Dew Point Humidity Pressure Visibility Wind Dir Wind Speed Gust Speed Precip Events Conditions
1:56 AM 33.1 °F - 30.0 °F 89% 30.38 in 7.0 mi Calm Calm - N/A   Mostly Cloudy
2:56 AM 36.0 °F - 33.1 °F 89% 30.37 in 8.0 mi Calm Calm - N/A   Overcast
3:56 AM 41.0 °F - 35.1 °F 79% 30.36 in 10.0 mi Calm Calm - N/A   Overcast
4:56 AM 43.0 °F - 35.1 °F 74% 30.36 in 10.0 mi Calm Calm - N/A   Mostly Cloudy
5:56 AM 43.0 °F - 35.1 °F 74% 30.37 in 10.0 mi Calm Calm - N/A   Mostly Cloudy
6:56 AM 44.1 °F - 35.1 °F 71% 30.39 in 10.0 mi Calm Calm - N/A   Overcast
7:56 AM 45.0 °F 43.5 °F 36.0 °F 71% 30.39 in 10.0 mi NE 3.5 mph - N/A   Overcast
8:56 AM 46.9 °F - 35.1 °F 63% 30.40 in 10.0 mi Calm Calm - N/A   Overcast
9:56 AM 50.0 °F - 34.0 °F 54% 30.41 in 10.0 mi ENE 4.6 mph - N/A   Overcast
10:56 AM 53.1 °F - 36.0 °F 52% 30.42 in 10.0 mi Calm Calm - N/A   Overcast
11:56 AM 54.0 °F - 37.0 °F 53% 30.41 in 10.0 mi Variable 3.5 mph - N/A   Overcast
12:56 PM 55.0 °F - 39.0 °F 55% 30.37 in 10.0 mi NNE 4.6 mph - N/A   Overcast
1:56 PM 57.0 °F - 39.9 °F 53% 30.35 in 10.0 mi North 3.5 mph - N/A   Overcast
2:56 PM 57.0 °F - 41.0 °F 55% 30.34 in 10.0 mi NE 3.5 mph - N/A   Overcast
3:56 PM 57.9 °F - 41.0 °F 53% 30.34 in 10.0 mi NE 3.5 mph - N/A   Mostly Cloudy
4:56 PM 59.0 °F - 42.1 °F 53% 30.34 in 10.0 mi Calm Calm - N/A   Mostly Cloudy
5:56 PM 55.0 °F - 42.1 °F 62% 30.35 in 10.0 mi Calm Calm - N/A   Mostly Cloudy
6:56 PM 55.0 °F - 42.1 °F 62% 30.37 in 10.0 mi North 3.5 mph - N/A   Mostly Cloudy
7:56 PM 55.0 °F - 42.1 °F 62% 30.38 in 10.0 mi North 3.5 mph - N/A   Mostly Cloudy
8:56 PM 54.0 °F - 43.0 °F 66% 30.37 in 10.0 mi NNE 3.5 mph - N/A   Scattered Clouds
9:56 PM 53.1 °F - 43.0 °F 69% 30.37 in 10.0 mi Calm Calm - N/A   Mostly Cloudy
10:56 PM 52.0 °F - 43.0 °F 71% 30.38 in 10.0 mi Calm Calm - N/A   Mostly Cloudy
11:56 PM 46.9 °F - 43.0 °F 86% 30.38 in 10.0 mi Calm Calm - N/A   Scattered Clouds